Flag for Qatar Weather past 2 weeks in Al Khor, Qatar

Now
106 °F

Sunny.


Feels Like: 103 °F
Forecast: 89 / 106 °F
Wind: 16 mph from Northwest

Location: Doha International Airport

Current Time: Sep 2, 2015 at 6:09:15 PM

Latest Report: Sep 2, 2015 at 5:00 PM


Visibility: 10 mi

Pressure: 29.56 "Hg

Humidity: 15%

Dew point: 50 °F

Historic Weather in Al Khor — Graph

°F

Al Khor temperature yesterday

Maximum temperature yesterday: 102 °F (at 10:00 AM)
Minimum temperature yesterday: 88 °F (at 6:00 AM)
Average temperature yesterday: 97 °F

Past Weeks' High & Low Weather Summary

 TemperatureHumidityPressure
High117 °F (Aug 25, 12:00 PM)84% (Aug 21, 6:00 AM)29.65 "Hg (Aug 21, 6:00 AM)
Low88 °F (Sep 1, 6:00 AM)15% (Sep 2, 4:00 PM)29.50 "Hg (Aug 21, 1:00 PM)
Average98 °F59%29.56 "Hg
* Reported Aug 18 5:00 PM — Sep 2 5:00 PM, Al Khor, Weather by CustomWeather, © 2015

Note: Actual official high and low records may vary slightly from our data, if they occured in-between our weather recording intervals... More about our weather records

Advertising

Al Khor weather history for previous 24 hours

 ConditionsComfort  
Time TempWeatherWind HumidityBarometerVisibility
5:00 PM
Wed, Sep 2
106 °FSunny.16 mph15%29.56 "Hg10 mi
4:00 PM108 °FClear.17 mph15%29.56 "Hg5 mi
3:00 PM109 °FClear.20 mph19%29.56 "Hg4 mi
2:00 PM108 °FClear.16 mph28%29.56 "Hg4 mi
1:00 PM108 °FDuststorm.15 mph26%29.59 "Hg3 mi
9:00 AM100 °FDuststorm.14 mph40%29.62 "Hg1 mi
8:00 AM99 °FDuststorm.15 mph39%29.62 "Hg2 mi
7:00 AM97 °FDuststorm.14 mph42%29.62 "Hg2 mi
6:00 AM95 °FDuststorm.13 mph44%29.59 "Hg2 mi
5:00 AM95 °FClear.13 mph47%29.59 "Hg10 mi
4:00 AM95 °FClear.10 mph53%29.56 "Hg10 mi
3:00 AM95 °FClear.10 mph56%29.56 "Hg10 mi
2:00 AM93 °FClear.10 mph71%29.59 "Hg10 mi
12:00 AM97 °FClear.6 mph56%29.59 "Hg10 mi
11:00 PM
Tue, Sep 1
95 °FClear.9 mph63%29.59 "Hg10 mi
10:00 PM97 °FClear.14 mph50%29.59 "Hg10 mi
9:00 PM97 °FClear.6 mph56%29.59 "Hg10 mi
8:00 PM97 °FClear.7 mph60%29.59 "Hg10 mi
7:00 PM97 °FClear.6 mph60%29.59 "Hg10 mi
6:00 PM99 °FClear.8 mph53%29.59 "Hg10 mi
Weather by CustomWeather, © 2015

See weather overviewHow to use our weather pages